Location: Roanoke
(37.2710°N, 79.9420°W)
Time: 16:01:27
(UTC-04:00)

Cosmos 1441 Rocket - Visible Passes

Search period start: 20 September 2014 00:00
Search period end: 30 September 2014 00:00
Orbit: 507 x 558 km, 81.1° (Epoch: 18 September)

Date Brightness Start Highest point End Pass type
(mag) Time Alt. Az. Time Alt. Az. Time Alt. Az.
20 Sep 5.5 04:31:23 10° NNE 04:34:34 24° ENE 04:36:29 17° ESE visible
20 Sep 4.6 06:07:54 10° NW 06:10:36 18° W 06:11:29 17° WSW visible
21 Sep 5.8 04:21:44 10° NNE 04:23:35 20° NE 04:23:35 20° NE visible
21 Sep 5.3 05:58:10 10° NW 05:58:48 13° NW 05:58:48 13° NW visible
22 Sep 6.4 04:12:06 10° NNE 04:12:11 11° NNE 04:12:11 11° NNE visible
